This is the latest recevied weather packets stored in our database for station/object K7FLA. If no packets are shown the sender has not sent any weather packets the latest 10 day(s).
| Time | Temp. | Humidity | Pressure | Rain* | Wind** | Luminosity | Snow |
|---|---|---|---|---|---|---|---|
| 1788286788 | 31.67° C | 16% | 1097.8 hPa | 0 mm | - | 741 W/m² | - |
| 1788286483 | 31.11° C | 17% | 1097.7 hPa | 0 mm | - | 732 W/m² | - |
| 1788286182 | 31.67° C | 17% | 1097.8 hPa | 0 mm | - | 730 W/m² | - |
| 1788285882 | 31.11° C | 17% | 1097.8 hPa | 0 mm | - | 721 W/m² | - |
| 1788285580 | 31.11° C | 19% | 1097.7 hPa | 0 mm | - | 713 W/m² | - |
| 1788285275 | 31.11° C | 18% | 1097.7 hPa | 0 mm | - | 706 W/m² | - |
| 1788284970 | 31.11° C | 18% | 1097.8 hPa | 0 mm | - | 695 W/m² | - |
| 1788284665 | 31.11° C | 15% | 1097.6 hPa | 0 mm | - | 684 W/m² | - |
| 1788284361 | 31.11° C | 20% | 1097.8 hPa | 0 mm | - | 674 W/m² | - |
| 1788284056 | 31.11° C | 18% | 1097.8 hPa | 0 mm | - | 662 W/m² | - |
| 1788283752 | 30.56° C | 19% | 1097.8 hPa | 0 mm | - | 650 W/m² | - |
| 1788283448 | 30.56° C | 18% | 1097.6 hPa | 0 mm | - | 637 W/m² | - |
| 1788283145 | 31.11° C | 18% | 1097.6 hPa | 0 mm | - | 625 W/m² | - |
| 1788282843 | 30.56° C | 19% | 1097.7 hPa | 0 mm | - | 611 W/m² | - |
| 1788282542 | 31.11° C | 20% | 1097.5 hPa | 0 mm | - | 597 W/m² | - |
| 1788282238 | 31.11° C | 21% | 1097.6 hPa | 0 mm | - | 582 W/m² | - |
| 1788281932 | 30.56° C | 21% | 1097.5 hPa | 0 mm | - | 566 W/m² | - |
| 1788281632 | 30.56° C | 20% | 1097.5 hPa | 0 mm | - | 553 W/m² | - |
| 1788281328 | 30° C | 21% | 1097.5 hPa | 0 mm | - | 536 W/m² | - |
| 1788281023 | 30° C | 22% | 1097.4 hPa | 0 mm | - | 519 W/m² | - |
| 1788280733 | 30° C | 21% | 1097.4 hPa | 0 mm | - | 501 W/m² | - |
| 1788280413 | 30° C | 22% | 1097.4 hPa | 0 mm | - | 486 W/m² | - |
| 1788280107 | 29.44° C | 21% | 1097.4 hPa | 0 mm | - | 466 W/m² | - |
| 1788279806 | 29.44° C | 21% | 1097.3 hPa | 0 mm | - | 447 W/m² | - |
| 1788279506 | 30° C | 21% | 1097.4 hPa | 0 mm | - | 433 W/m² | - |
* Rain latest hour (hover to see other rain measurements)
** Current wind speed in m/s (hover to see current wind gust speed)